Regional Weather Roundup
Issued by NWS Wakefield, VA

Home | Current Version | Previous Version | Text Only | Print | Product List | Glossary Off
Versions: 1 2 3 4 5 6 7 8 9 10 11 12 13 14 15 16 17 18 19 20 21 22 23 24 25 26 27 28 29 30 31 32 33 34 35 36 37 38 39 40 41 42 43 44 45 46 47 48 49 50

000
ASUS41 KAKQ 250614
RWRAKQ

REGIONAL WEATHER ROUNDUP
NATIONAL WEATHER SERVICE WAKEFIELD VA
200 AM EDT MON MAY 25 2015

Note: "fair" indicates few or no clouds below 12,000 feet with no
significant weather and/or obstructions to visibility. * = Denotes
station may not report precipitation (e.g., rain,snow,etc.),
thunder or fog.

VAZ042-051-052>054-056-250700-
NORTHERN VIRGINIA

CITY           SKY/WX    TMP DP  RH WIND       PRES   REMARKS
WASH NATIONAL  PTCLDY    71  58  63 S9        30.26S
DULLES         CLEAR     65  55  70 S5        30.25S
FORT BELVOIR   CLEAR     61  57  86 SE3       30.25F
QUANTICO       LGT RAIN  70  57  63 SW10      30.27S
FREDERICKSBRG* CLEAR     68  58  69 S6        30.26S
STAFFORD*      CLEAR     65  55  71 CALM      30.30S
WARRENTON      CLEAR     61  57  87 CALM      30.26S
CULPEPER*      CLEAR     59  55  85 CALM      30.27S
MANASSAS*      CLEAR     64  57  77 CALM      30.26S
LEESBURG*      CLEAR     64  59  82 S3        30.25F
WINCHESTER     CLEAR     66  48  52 SW3       30.24S
FRONT ROYAL*   FAIR      64  54  68 S6        30.23F
LURAY*         FAIR      64  55  72 SW6       30.26S
$$

VAZ048-049-060>072-079>083-250700-
CENTRAL AND SOUTH CENTRAL VIRGINIA

CITY           SKY/WX    TMP DP  RH WIND       PRES   REMARKS
RICHMOND       PTCLDY    68  56  65 S12       30.29S
CHESTERFIELD*  NOT AVBL
PETERSBURG*    CLEAR     64  57  80 S3        30.31S
HANOVER        CLEAR     68  56  65 S8        30.30S
TAPPAHANNOCK*  CLEAR     66  54  63 S7        30.30R
QUINTON*       FAIR      67  57  70 S5        30.29F
CHARLOTTSVILLE CLEAR     62  54  74 S6        30.27S
GORDONSVILLE*  FAIR      57  55  91 SW3       30.27F
ORANGE*        CLEAR     63  55  77 CALM      30.28F
LOUISA*        CLEAR     64  55  72 CALM      30.27S
BUMPASS*       FAIR      63  55  77 CALM      30.28S
FARMVILLE*     CLEAR     62  56  81 S3        30.28S
CREWE*         FAIR      62  56  79 CALM      30.30S
FORT PICKETT*  NOT AVBL
CHASE CITY*    FAIR      67  60  77 S3        30.31F
CLARKSVILLE*   FAIR      63  57  82 S7        30.30F
SOUTH HILL*    CLEAR     60  56  84 CALM      30.37F
LAWRENCEVILLE* FAIR      63  57  82 CALM      30.31F
EMPORIA*       CLEAR     61  55  82 SE3       30.34S
$$

VAZ088>098-250700-
SOUTHEAST VIRGINIA

CITY           SKY/WX    TMP DP  RH WIND       PRES   REMARKS
NORFOLK        CLEAR     65  54  67 SW8       30.31F
VIRGINIA BEACH PTCLDY    66  57  72 S7        30.31F
NORFOLK NAVAL  PTCLDY    72  56  57 S10       30.33S
WEST POINT*    CLEAR     69  55  59 S5        30.31F
SALUDA*        FAIR      66  57  72 S6        30.29S
NEWPORT NEWS   CLEAR     70  57  63 SW9       30.31F
LANGLEY AFB    CLEAR     67  57  69 SW10      30.30F
FORT EUSTIS    CLEAR     68  57  67 S10       30.29F
WILLIAMSBURG*  CLEAR     70  59  68 S7        30.32S
HR EXEC AP*    FAIR      64  55  72 SW6       30.34S
FRANKLIN*      CLEAR     62  55  80 S6        30.33S
WAKEFIELD      CLEAR     65  55  70 S3        30.31F
$$

VAZ020-022-025-037-045-250700-
WEST CENTRAL AND SOUTHWEST VIRGINIA

CITY           SKY/WX    TMP DP  RH WIND       PRES   REMARKS
STAUNTON*      CLEAR     56  52  86 CALM      30.30F
WAYNESBORO*    FAIR      60  52  75 CALM      30.29F
HOT SPRINGS VA CLEAR     61  48  62 SW14G23   30.36F
LYNCHBURG      CLEAR     59  54  83 CALM      30.30F
DANVILLE       CLEAR     63  55  75 CALM      30.31F
SOUTH BOSTON*  FAIR      64  56  76 MISG      30.31F
MARTINSVILLE   CLEAR     53  53 100 CALM      30.33F
ROANOKE        CLEAR     60  53  77 CALM      30.31F
BLACKSBURG     CLEAR     55  51  87 CALM      30.35F
DUBLIN*        CLEAR     55  53  92 CALM      30.33F
MARION*        CLEAR     60  50  70 CALM      30.35S
HILLSVILLE*    CLEAR     61  53  73 S6        30.34F
RICHLANDS*     FAIR      64  51  61 S3        30.31S
WISE*          CLEAR     63  46  55 S8        30.30F
ABINGDON*      CLEAR     60  52  75 CALM      30.29F
$$

MDZ021>025-VAZ099-100-250700-
SOUTHERN MARYLAND AND THE DELMARVA PENINSULA

CITY           SKY/WX    TMP DP  RH WIND       PRES   REMARKS
PATUXENT RIVER CLEAR     67  59  75 S8        30.27S
BAY BRIDGE APT   N/A    N/A N/A N/A S7        30.26S
LEONARDTOWN    CLEAR     64  57  77 S5        30.29S
DOVER          MOCLDY    64  58  83 S7        30.24F
GEORGETOWN     PTCLDY    61  54  77 SW7       30.29F
EASTON         CLEAR     66  62  87 SW5       30.30F
CAMBRIDGE      CLEAR     68  61  77 S3        30.27F
SALISBURY      CLEAR     59  54  83 S5        30.29F
OCEAN CITY     CLEAR     65  56  72 SW10      30.29F
WALLOPS ISLAND CLEAR     62  60  93 S9        30.31F
ACCOMACK*      CLEAR     63   5  10 S8        30.30F
$$

NCZ012>017-030>032-250700-
NORTH CENTRAL AND EASTERN NORTH CAROLINA

CITY           SKY/WX    TMP DP  RH WIND       PRES   REMARKS
ROANOKE RAPIDS FAIR      61  55  82 S5        30.33F
RALEIGH        PTCLDY    66  57  72 SW5       30.33F
ELIZABETH CITY CLEAR     64  59  83 S5        30.33F
AHOSKIE*       CLEAR     59  55  87 CALM      30.34S
EDENTON*       CLEAR     65  60  84 S6        30.34S
CURRITUCK*     CLEAR     62  57  82 CALM      30.34S
KILL DEVIL HLS CLEAR     64  57  77 SE3       30.33S
MANTEO         CLEAR     65  57  74 SE5       30.34F
CAPE HATTERAS  CLEAR     59  55  87 E3        30.34F
TARBORO*       FAIR      61  58  88 CALM      30.34F
GOLDSBORO      CLEAR     63  59  87 CALM      30.32S
WASHINGTON     CLEAR     64  58  80 CALM      30.34F
GREENVILLE     CLEAR     63  59  88 CALM      30.34S
NEW BERN       CLEAR     60  55  83 CALM      30.35F
WILMINGTON     PTCLDY    63  60  90 CALM      30.33S
$$

VAZ048-250700-
ELSEWHERE

CITY           SKY/WX    TMP DP  RH WIND       PRES   REMARKS
HARRISBURG PA  MOCLDY    67  58  72 SE6       30.22F
BALTIMORE      PTCLDY    61  59  93 CALM      30.25S
ANNAPOLIS      CLEAR     65  61  87 S5        30.25F
ANDREWS AFB    CLEAR     66  57  74 S7        30.25F
PHILADELPHIA   MOCLDY    65  56  72 S6        30.27F
HENDERSON NC   CLEAR     63  55  75 S6        30.32F
GREENSBORO     PTCLDY    65  54  67 S8        30.32S
ROCKY MOUNT    CLEAR     63  58  83 S3        30.34F
$$

VAZ100-250700-
MARINE

STATION/POSITION TIME  TEMP    WIND        PRES    WAVE   SWELL
                       AIR SEA DIR/SP/G            HT/PER HT/PER
                 (UTC) (F)     (DEG/KT/KT) (MB)    (FT/S) (FT/S)
BRANDYWINE LGT   0500   64 64  190/ 11/ 12 1025.6F
CAPE MAY NJ      0500   61 67  130/  5/  6 1025.4F
LEWES DE         0500   65 62  210/  7/ 12 1025.3F
15NM E FENWICK I 0550   61 60              1025.6F   2/ 4
OCEAN-CITY-INLET 0500   63 62  210/  8/  9 1025.8F
WACHAPREAGUE VA  0500   66 68  220/  5/  8 1026.5F
THOMAS POINT MD  0600   67 66  180/ 12/ 13 1025.0F
GOOSES REEF MD   0600   68 66  210/ 10/ 12 1025.7F   2/ 3
SOLOMONS ISLAND  0500      70                N/A
BISHOPS HEAD MD  0500   69 71  200/ 14/ 16 1025.0F
PINEY POINT MD   0500          210/ 11/ 13   N/A
CAMBRIDGE MD     0500   66 70  160/  3/  6 1025.1F
LEWISETTA VA     0500   68 71              1025.1F
RAPPAHANNOCK LGT 0500          190/ 15/ 16 1026.7F
STINGRAY PT      0600   70 69  210/ 12/ 14 1025.3F   2/ 3
YORK RVR RNG VA  0500   71     210/ 16/ 18 1025.6F
YORKTOWN VA      0500   69 72  200/  6/ 10 1026.1F
JAMESTOWN VA     0600   67 73  210/ 10/ 12 1025.2F
DOMINION TERM VA 0500   69     210/ 12/ 14 1026.7F
KIPTOPEKE VA     0500      73  210/ 12/ 14   N/A
CHES BAY BRIDGE  0500   68 69  180/ 13/ 15 1026.2F
CAPE HENRY VA    0500   67     200/  9/ 14 1025.4F
CHESAPEAKE LGHT  0500   66     190/ 15/ 16 1027.3F
WILLOUBY STN VA  0500   70     200/ 13/ 15 1027.3F
CAPE HENRY BUOY  0528      66                N/A     2/ 3
1ST LANDING BUOY 0600      67              1026.0F
CAPE CHARLES BUO 0526      66                N/A     2/ 4   2/ 6
OFFSHORE WE BUOY 0511      61                N/A     2/ 6   2/ 6
64NM E OF VA BCH 0550   64 62  180/  8/ 10 1026.8F   1/ 9   2/ 9
DUCK PIER NC     0500   66 62  160/  6/  7 1026.5F
44100 DUCK FRF   0524      64                N/A     1/ 8
44056 DUCK FRF   0511      64                N/A     1/ 8
OREGON INLET NC  0500   65 74  130/  5/  7 1027.7F
HATTERAS NC      0500   72 75  140/  4/  5 1027.2F
DIAMOND SHLS NC  0550   74 77  110/  8/ 10 1027.1F   2/ 8   2/ 8
CAPE LOOKOUT NC  0600   72     140/  7/  9 1027.0F
$$


USA.gov is the U.S. government's official web portal to all federal, state and local government web resources and services.